DAL458 KMSP-KPHX

Flight info

Callsign DAL458
Flight time N/A
Altitude 36000
Route SCHEP1 RXANN TEYOU LLUKY PUB ALS J102 GUP EAGUL6
Aircraft CRJ9/M-SDFGIRWY/S

Departure

Time 2026-05-01 15:01
Airport Minneapolis–Saint Paul International Airport / Wold–Chamberlain Field (KMSP)

Arrival

Time N/A
Airport Phoenix Sky Harbor International Airport (KPHX)
Time Latitude Longitude Altitude Speed Heading
2026-05-01 14:49 44.88037 -93.20991 833 ft 0 kts 31°
2026-05-01 14:51 44.88033 -93.20994 833 ft 3 kts 31°
2026-05-01 14:51 44.88001 -93.21022 829 ft 3 kts 31°
2026-05-01 14:52 44.87969 -93.21025 829 ft 3 kts 308°
2026-05-01 14:52 44.87967 -93.21022 829 ft 0 kts 307°
2026-05-01 14:53 44.87968 -93.21024 832 ft 1 kts 307°
2026-05-01 14:54 44.87981 -93.21066 828 ft 12 kts 292°
2026-05-01 14:54 44.88011 -93.21175 832 ft 12 kts 275°
2026-05-01 14:54 44.88014 -93.21289 832 ft 12 kts 284°
2026-05-01 14:54 44.88053 -93.21399 829 ft 13 kts 306°
2026-05-01 14:55 44.88118 -93.21474 829 ft 11 kts 333°
2026-05-01 14:55 44.88177 -93.21530 832 ft 10 kts 305°
2026-05-01 14:55 44.88214 -93.21616 832 ft 12 kts 303°
2026-05-01 14:55 44.88260 -93.21722 836 ft 13 kts 301°
2026-05-01 14:56 44.88305 -93.21827 835 ft 12 kts 301°
2026-05-01 14:56 44.88311 -93.21929 835 ft 12 kts 227°
2026-05-01 14:56 44.88239 -93.22003 834 ft 14 kts 211°
2026-05-01 14:56 44.88137 -93.22117 838 ft 19 kts 225°
2026-05-01 14:57 44.88047 -93.22257 839 ft 19 kts 226°
2026-05-01 14:57 44.87875 -93.22506 834 ft 18 kts 224°
2026-05-01 14:57 44.87788 -93.22628 838 ft 18 kts 225°
2026-05-01 14:58 44.87685 -93.22775 830 ft 25 kts 224°
2026-05-01 14:58 44.87560 -93.22948 832 ft 26 kts 224°
2026-05-01 14:58 44.87438 -93.23123 830 ft 24 kts 223°
2026-05-01 14:58 44.87290 -93.23214 832 ft 23 kts 225°
2026-05-01 14:59 44.87190 -93.23379 832 ft 22 kts 230°
2026-05-01 14:59 44.87082 -93.23535 834 ft 22 kts 224°
2026-05-01 14:59 44.87032 -93.23727 831 ft 22 kts 284°
2026-05-01 14:59 44.87157 -93.23810 826 ft 20 kts 349°
2026-05-01 15:00 44.87376 -93.23614 832 ft 38 kts 46°
2026-05-01 15:00 44.87702 -93.23157 831 ft 94 kts 44°
2026-05-01 15:00 44.88283 -93.22348 835 ft 138 kts 45°
2026-05-01 15:01 44.89033 -93.21287 992 ft 162 kts 47°
2026-05-01 15:01 44.89829 -93.20181 1667 ft 158 kts 37°
2026-05-01 15:01 44.90849 -93.19669 2249 ft 160 kts 356°
2026-05-01 15:01 44.91848 -93.20331 2769 ft 165 kts 312°
2026-05-01 15:02 44.92231 -93.21881 3221 ft 175 kts 271°
2026-05-01 15:02 44.92065 -93.22993 3587 ft 177 kts 249°
2026-05-01 15:02 44.90868 -93.24655 4134 ft 191 kts 213°
2026-05-01 15:02 44.89721 -93.25662 4516 ft 205 kts 212°
2026-05-01 15:03 44.88439 -93.26835 4676 ft 234 kts 216°
2026-05-01 15:03 44.87045 -93.28217 5062 ft 254 kts 217°
2026-05-01 15:03 44.85589 -93.29715 5522 ft 269 kts 219°
2026-05-01 15:03 44.84181 -93.31485 6217 ft 271 kts 228°
2026-05-01 15:04 44.82939 -93.33491 6966 ft 273 kts 234°
2026-05-01 15:04 44.81817 -93.35684 7653 ft 276 kts 239°
2026-05-01 15:04 44.80778 -93.37974 8359 ft 278 kts 240°
2026-05-01 15:04 44.79758 -93.40315 9073 ft 282 kts 241°
2026-05-01 15:05 44.78723 -93.42641 9768 ft 286 kts 240°
2026-05-01 15:05 44.77645 -93.45025 10354 ft 294 kts 240°
2026-05-01 15:05 44.76515 -93.47518 10633 ft 311 kts 240°
2026-05-01 15:05 44.75312 -93.50156 10923 ft 328 kts 240°
2026-05-01 15:06 44.74054 -93.52907 11370 ft 337 kts 240°
2026-05-01 15:06 44.72777 -93.55694 12028 ft 341 kts 240°
2026-05-01 15:06 44.71484 -93.58509 12687 ft 344 kts 240°
2026-05-01 15:06 44.70168 -93.61338 13343 ft 347 kts 239°
2026-05-01 15:07 44.68797 -93.64162 13982 ft 351 kts 238°
2026-05-01 15:07 44.67370 -93.66968 14568 ft 355 kts 237°
2026-05-01 15:07 44.65916 -93.69785 15147 ft 357 kts 237°
2026-05-01 15:07 44.64438 -93.72618 15721 ft 361 kts 237°
2026-05-01 15:08 44.62950 -93.75469 16294 ft 364 kts 237°
2026-05-01 15:08 44.61454 -93.78307 16849 ft 367 kts 236°
2026-05-01 15:08 44.59915 -93.81190 17401 ft 370 kts 236°
2026-05-01 15:08 44.58362 -93.84103 17953 ft 373 kts 236°
2026-05-01 15:09 44.56823 -93.87042 18481 ft 376 kts 237°
2026-05-01 15:09 44.55286 -93.89985 18937 ft 378 kts 236°
2026-05-01 15:09 44.53773 -93.92876 19374 ft 380 kts 236°
2026-05-01 15:09 44.52240 -93.95803 19806 ft 383 kts 236°
2026-05-01 15:10 44.50764 -93.98622 20219 ft 385 kts 236°
2026-05-01 15:10 44.48096 -94.03700 20931 ft 389 kts 236°
2026-05-01 15:10 44.46786 -94.06194 21272 ft 391 kts 236°
2026-05-01 15:11 44.45562 -94.08517 21576 ft 393 kts 236°
2026-05-01 15:11 44.43104 -94.13167 22174 ft 397 kts 235°
2026-05-01 15:11 44.41454 -94.16284 22556 ft 399 kts 236°
2026-05-01 15:12 44.39814 -94.19421 22932 ft 401 kts 235°
2026-05-01 15:12 44.36472 -94.25723 23671 ft 405 kts 235°
2026-05-01 15:12 44.34805 -94.28866 23960 ft 408 kts 235°
2026-05-01 15:13 44.29757 -94.38381 24849 ft 412 kts 236°
2026-05-01 15:14 44.26481 -94.44528 25375 ft 415 kts 235°
2026-05-01 15:14 44.24948 -94.47399 25608 ft 416 kts 234°
2026-05-01 15:14 44.22211 -94.52505 26024 ft 419 kts 234°
2026-05-01 15:15 44.19608 -94.57390 26399 ft 421 kts 234°
2026-05-01 15:15 44.16981 -94.62282 26786 ft 423 kts 234°
2026-05-01 15:16 44.14347 -94.67182 27148 ft 425 kts 234°
2026-05-01 15:16 44.11655 -94.72184 27496 ft 427 kts 234°
2026-05-01 15:17 44.08997 -94.77106 27815 ft 429 kts 235°
2026-05-01 15:18 44.04713 -94.85083 28320 ft 432 kts 234°
2026-05-01 15:18 44.02897 -94.88422 28522 ft 434 kts 234°
2026-05-01 15:19 43.97491 -94.98561 29057 ft 438 kts 236°
2026-05-01 15:19 43.93940 -95.05458 29412 ft 440 kts 236°
2026-05-01 15:19 43.92187 -95.08851 29597 ft 441 kts 236°
2026-05-01 15:20 43.88635 -95.15678 29898 ft 444 kts 236°
2026-05-01 15:20 43.87171 -95.18477 30038 ft 444 kts 235°
2026-05-01 15:20 43.85686 -95.21296 30158 ft 445 kts 236°
2026-05-01 15:21 43.84226 -95.24068 30201 ft 448 kts 236°
2026-05-01 15:21 43.80914 -95.30344 30212 ft 454 kts 236°
2026-05-01 15:22 43.75328 -95.40951 30208 ft 455 kts 235°
2026-05-01 15:22 43.71614 -95.48003 30207 ft 456 kts 236°
2026-05-01 15:23 43.67859 -95.55108 30207 ft 457 kts 235°
2026-05-01 15:23 43.64092 -95.62205 30204 ft 458 kts 236°
2026-05-01 15:24 43.60313 -95.69308 30218 ft 459 kts 235°
2026-05-01 15:24 43.56529 -95.76413 30214 ft 460 kts 235°
2026-05-01 15:25 43.52755 -95.83484 30209 ft 461 kts 235°
2026-05-01 15:25 43.48942 -95.90612 30201 ft 462 kts 236°
2026-05-01 15:26 43.45124 -95.97738 30191 ft 463 kts 236°
2026-05-01 15:26 43.41282 -96.04857 30186 ft 463 kts 235°
2026-05-01 15:27 43.37452 -96.11999 30181 ft 464 kts 236°
2026-05-01 15:28 43.31723 -96.22659 30178 ft 465 kts 235°
2026-05-01 15:28 43.28137 -96.30030 30181 ft 463 kts 245°
2026-05-01 15:29 43.24365 -96.42199 30186 ft 462 kts 249°
2026-05-01 15:30 43.19544 -96.56927 30190 ft 463 kts 248°
2026-05-01 15:31 43.11232 -96.82125 30202 ft 464 kts 247°
2026-05-01 15:32 43.06507 -96.96333 30213 ft 464 kts 247°
2026-05-01 15:34 42.99563 -97.17046 30222 ft 464 kts 247°